FW6463 Weather Reports


Display with metric or nautical units.
time (UTC)temp
F
wind
direction
speed
MPH
gust
MPH
rain 1hr
in
rain 24hr
in
rain mn
in
humidity
%
barometer
mb
20260503020036 46 315 4.0 7.0 0.00 0.28 0.01 73 1017.9
20260503015041 46 328 4.0 8.0 0.00 0.28 0.01 74 1017.9
20260503014026 46 307 5.0 8.0 0.00 0.28 0.01 72 1017.8
20260503013112 46 301 4.0 6.0 0.00 0.28 0.01 73 1017.6
20260503012039 46 289 3.0 6.0 0.00 0.28 0.01 73 1017.6
20260503011022 46 330 4.0 6.0 0.00 0.28 0.01 73 1017.4
20260503010027 46 322 2.0 5.0 0.00 0.28 0.01 73 1017.3
20260503005025 46 290 3.0 6.0 0.00 0.28 0.01 71 1017.2
20260503004019 46 326 3.0 6.0 0.00 0.28 0.01 73 1017.1
20260503003024 46 319 2.0 4.0 0.00 0.28 0.01 72 1017.1
20260503002042 47 334 3.0 5.0 0.00 0.28 0.01 71 1017.0
20260503001021 47 349 3.0 6.0 0.00 0.28 0.01 70 1016.8
20260503000041 48 326 5.0 6.0 0.00 0.28 0.01 69 1016.6
20260502235018 49 329 3.0 4.0 0.00 0.28 0.01 68 1016.7
20260502234017 49 331 4.0 9.0 0.00 0.28 0.01 67 1016.7
20260502233016 49 340 7.0 9.0 0.00 0.28 0.01 67 1016.6
20260502232020 50 299 5.0 8.0 0.00 0.28 0.01 66 1016.5
20260502231045 50 302 5.0 8.0 0.00 0.28 0.01 66 1016.3
20260502230029 50 318 5.0 10.0 0.00 0.28 0.01 62 1016.2
20260502225016 51 320 4.0 7.0 0.00 0.28 0.01 61 1016.1
20260502224021 52 351 5.0 8.0 0.00 0.28 0.01 60 1016.0
20260502223026 53 312 4.0 9.0 0.00 0.28 0.01 59 1015.9
20260502222031 52 291 5.0 9.0 0.00 0.28 0.01 57 1015.9
20260502221018 52 292 7.0 10.0 0.00 0.28 0.01 57 1015.9
20260502220022 52 321 5.0 7.0 0.00 0.28 0.01 56 1016.0
20260502215047 53 302 5.0 9.0 0.00 0.28 0.01 55 1015.9
20260502214052 54 279 6.0 9.0 0.00 0.28 0.01 54 1015.8
20260502213018 55 334 5.0 7.0 0.00 0.28 0.01 54 1015.7
20260502212024 55 301 4.0 7.0 0.00 0.28 0.01 54 1015.6
20260502211029 55 321 5.0 9.0 0.00 0.28 0.01 55 1015.5
20260502210015 54 292 5.0 7.0 0.00 0.28 0.01 54 1015.5
20260502205020 55 306 6.0 9.0 0.00 0.28 0.01 55 1015.5
20260502204024 55 330 5.0 9.0 0.00 0.28 0.01 53 1015.5
20260502203029 55 308 5.0 8.0 0.00 0.28 0.01 54 1015.6
20260502202016 56 281 5.0 7.0 0.00 0.28 0.01 53 1015.5
20260502201022 57 303 5.0 7.0 0.00 0.28 0.01 54 1015.8
20260502200047 57 300 6.0 9.0 0.00 0.28 0.01 53 1015.9
20260502195030 57 301 6.0 9.0 0.00 0.28 0.01 53 1016.0
20260502194017 58 296 6.0 8.0 0.00 0.28 0.01 53 1016.1
20260502193022 56 300 7.0 13.0 0.00 0.28 0.01 55 1016.3
20260502192026 55 307 6.0 10.0 0.00 0.28 0.01 55 1016.4
20260502191033 54 311 5.0 7.0 0.00 0.28 0.01 56 1016.6
20260502190039 54 295 5.0 11.0 0.00 0.28 0.01 55 1016.6
20260502185043 55 306 3.0 5.0 0.00 0.28 0.01 52 1016.7
20260502184028 55 286 3.0 6.0 0.00 0.28 0.01 54 1016.7
20260502182019 54 5.0 5.0 0.00 0.28 0.01 58 1017.0
20260502181024 54 268 4.0 5.0 0.00 0.28 0.01 56 1016.9
20260502164046 56 271 6.0 11.0 0.00 0.28 0.01 52 1017.3
20260502163017 54 287 3.0 5.0 0.00 0.28 0.01 52 1017.3
20260502162023 54 253 4.0 5.0 0.00 0.28 0.01 54 1017.3
20260502161021 55 314 4.0 5.0 0.00 0.28 0.01 53 1017.6
20260502152033 56 328 4.0 7.0 0.00 0.28 0.01 52 1017.6
20260502151020 56 275 6.0 10.0 0.00 0.28 0.01 57 1017.6
20260502123023 44 305 3.0 7.0 0.00 0.28 0.01 82 1017.9
20260502122028 44 289 3.0 5.0 0.00 0.28 0.01 83 1018.1
20260502121037 44 293 3.0 6.0 0.00 0.28 0.01 83 1018.1
20260502115024 42 274 3.0 5.0 0.00 0.28 0.01 87 1018.1
20260502114029 42 261 1.0 3.0 0.00 0.28 0.01 90 1018.1
20260502113037 41 266 2.0 4.0 0.00 0.28 0.01 91 1017.9
20260502112042 40 227 1.0 2.0 0.00 0.28 0.01 95 1018.1
20260502111025 39 231 2.0 4.0 0.00 0.28 0.01 96 1018.1
20260502110032 38 275 1.0 4.0 0.00 0.28 0.01 97 1018.1
20260502105017 38 275 2.0 3.0 0.00 0.28 0.01 99 1018.1
20260502104023 37 294 1.0 2.0 0.00 0.28 0.01 98 1018.1
20260502103026 37 0.0 2.0 0.00 0.28 0.01 98 1018.1
20260502102032 37 270 0.0 1.0 0.00 0.28 0.01 98 1017.9
20260502101018 38 181 2.0 2.0 0.00 0.28 0.01 98 1017.8
20260502091028 42 286 3.0 5.0 0.00 0.28 0.01 92 1017.4
20260502071032 45 272 3.0 7.0 0.00 0.28 0.01 86 1016.5
20260502070019 45 264 4.0 6.0 0.00 0.28 0.01 86 1016.4
20260502065025 44 247 4.0 6.0 0.00 0.28 0.01 88 1016.2
20260502064028 45 205 1.0 3.0 0.00 0.28 0.01 87 1016.1
20260502063033 45 245 4.0 5.0 0.00 0.28 0.01 85 1016.2
20260502062020 45 245 4.0 6.0 0.00 0.28 0.01 86 1016.3
20260502061025 46 236 4.0 7.0 0.00 0.28 0.01 86 1016.3
20260502060030 46 237 4.0 6.0 0.00 0.28 0.01 85 1016.2
20260502055016 47 234 5.0 7.0 0.00 0.28 0.01 85 1016.2
20260502054022 47 243 6.0 8.0 0.00 0.28 0.01 86 1016.2
20260502053025 48 244 7.0 9.0 0.01 0.28 0.01 86 1016.1
20260502052030 48 234 5.0 7.0 0.01 0.28 0.01 88 1016.4
20260502051017 49 248 5.0 8.0 0.01 0.28 0.01 86 1016.3
20260502045026 49 266 5.0 7.0 0.01 0.28 0.01 92 1016.4
20260502044052 48 251 6.0 9.0 0.01 0.28 0.01 96 1016.5
20260502043018 48 245 3.0 5.0 0.00 0.27 0.00 98 1016.3
20260502042023 48 212 2.0 4.0 0.00 0.27 0.00 97 1016.3
20260502041027 48 207 2.0 4.0 0.27 0.27 0.00 98 1016.3
20260502040032 48 190 2.0 4.0 0.27 0.27 0.00 98 1016.1
20260502035019 48 216 1.0 3.0 0.27 0.27 0.27 98 1016.1
20260502034043 48 190 1.0 2.0 0.27 0.27 0.27 98 1016.0
20260502033048 48 218 2.0 3.0 0.27 0.27 0.27 95 1016.0
20260502032033 49 214 2.0 3.0 0.27 0.27 0.27 96 1016.1
20260502031019 49 204 1.0 2.0 0.00 0.00 0.00 99 1016.0
20260502030044 49 105 1.0 3.0 0.00 0.00 0.00 99 1016.0
20260502025029 49 216 1.0 4.0 0.00 0.00 0.00 97 1016.1
20260502024016 50 153 1.0 2.0 0.00 0.00 0.00 95 1016.2
20260502023022 51 0.0 0.0 0.00 0.00 0.00 91 1016.0
20260502022025 51 203 1.0 3.0 0.00 0.00 0.00 88 1016.1
20260502021110 51 113 0.0 2.0 0.00 0.00 0.00 88 1015.8